Location: ČR
(50.0000°N, 15.0000°E)
Time: 13:46:33
(UTC+00:00)

Explorer 7 - Pass Details

Date: 22 October 2021
Orbit: 483 x 675 km, 50.3° (Epoch: 27 November)

Event Time Altitude Azimuth Distance (km) Brightness Sun altitude
Rises 22:23:11 0° 254° (WSW) 2,720 - -51.1°
Reaches altitude 10° 22:25:21 10° 253° (WSW) 1,859 - -51.2°
Maximum altitude 22:29:37 82° 168° (SSE) 603 - -51.3°
Drops below altitude 10° 22:34:11 10° 80° (E) 1,987 - -51.3°
Sets 22:36:34 0° 80° (E) 2,925 - -51.4°
